Location: Sevilla
(37.3933°N, 5.9839°W)
Time: 05:10:53
(UTC+02:00)

Vanguard 3 - Pass Details

Date: 02 July 2024
Orbit: 508 x 3231 km, 33.4° (Epoch: 15 July)

Event Time Altitude Azimuth Distance (km) Brightness Sun altitude
Rises 09:23:22 0° 254° (WSW) 7,062 11.4 24.3°
Reaches altitude 10° 09:28:28 10° 253° (WSW) 5,846 11.0 25.3°
Maximum altitude 09:45:20 72° 174° (S) 2,214 9.8 28.6°
Drops below altitude 10° 09:55:05 10° 92° (E) 3,576 12.0 30.5°
Sets 09:57:28 0° 90° (E) 4,270 12.0 31.0°
